When you browse on this site, cookies collect data to enhance your experience and personalize the content and advertising you see.
Visit our Privacy Policy to learn more. By continuing to use the site, you agree to this use of cookies and data.
  • In United Kingdom
  • List of Countries
  • For 7 days
  • Water Temperature
  • Weather Map
  • Weather Widgets
  • user-avatar
    Login

    Hourly Weather Hobart

    Today, 25 August, Sunday

    Time Temperature Precipitation Wind Pressure Humidity
    00:00 +3°C° 0.2 mm 4 mps 740 mmHg 95%
    01:00 +3°C° 0.2 mm 4 mps 741 mmHg 94%
    02:00 +3°C° 0 mm 4 mps 742 mmHg 93%
    03:00 +1°C° 0 mm 4 mps 743 mmHg 92%
    04:00 +3°C° 0 mm 2 mps 744 mmHg 92%
    05:00 +1°C° 0 mm 3 mps 744 mmHg 92%
    06:00 +1°C° 0 mm 3 mps 745 mmHg 92%
    07:00 +1°C° 0 mm 3 mps 745 mmHg 92%
    08:00 +3°C° 0 mm 3 mps 746 mmHg 88%
    09:00 +5°C° 0 mm 3 mps 746 mmHg 84%
    10:00 +8°C° 0 mm 3 mps 747 mmHg 80%
    11:00 +8°C° 0.1 mm 3 mps 747 mmHg 75%
    12:00 +8°C° 0.1 mm 4 mps 747 mmHg 71%
    13:00 +10°C° 0.1 mm 4 mps 747 mmHg 67%
    14:00 +10°C° 0 mm 4 mps 747 mmHg 67%
    15:00 +10°C° 0 mm 3 mps 747 mmHg 67%
    16:00 +10°C° 0 mm 3 mps 747 mmHg 67%
    17:00 +9°C° 0 mm 3 mps 747 mmHg 74%
    18:00 +7°C° 0 mm 3 mps 747 mmHg 81%
    19:00 +5°C° 0 mm 3 mps 748 mmHg 88%
    20:00 +6°C° 0 mm 2 mps 748 mmHg 89%
    21:00 +6°C° 0 mm 2 mps 748 mmHg 90%
    22:00 +6°C° 0 mm 2 mps 749 mmHg 91%
    23:00 +6°C° 0 mm 2 mps 749 mmHg 90%

    Tomorrow, 26 August, Monday

    Time Temperature Precipitation Wind Pressure Humidity
    00:00 +6°C° 0 mm 2 mps 749 mmHg 88%
    01:00 +7°C° 0 mm 2 mps 749 mmHg 87%
    02:00 +6°C° 0 mm 2 mps 749 mmHg 88%
    03:00 +5°C° 0 mm 2 mps 749 mmHg 90%
    04:00 +5°C° 0 mm 2 mps 749 mmHg 92%
    05:00 +5°C° 0 mm 2 mps 749 mmHg 91%
    06:00 +4°C° 0 mm 3 mps 749 mmHg 90%
    07:00 +5°C° 0 mm 3 mps 749 mmHg 90%
    08:00 +7°C° 0 mm 3 mps 749 mmHg 84%
    09:00 +8°C° 0 mm 3 mps 750 mmHg 78%
    10:00 +10°C° 0 mm 4 mps 750 mmHg 72%
    11:00 +11°C° 0 mm 4 mps 749 mmHg 67%
    12:00 +11°C° 0 mm 4 mps 749 mmHg 62%
    13:00 +12°C° 0 mm 4 mps 749 mmHg 57%
    14:00 +12°C° 0 mm 4 mps 749 mmHg 58%
    15:00 +12°C° 0 mm 4 mps 749 mmHg 58%
    16:00 +11°C° 0 mm 4 mps 749 mmHg 59%
    17:00 +10°C° 0 mm 3 mps 749 mmHg 66%
    18:00 +8°C° 0 mm 3 mps 749 mmHg 73%
    19:00 +7°C° 0 mm 2 mps 749 mmHg 80%
    20:00 +7°C° 0 mm 3 mps 749 mmHg 82%
    21:00 +7°C° 0 mm 3 mps 749 mmHg 84%
    22:00 +7°C° 0 mm 3 mps 749 mmHg 85%
    23:00 +7°C° 0 mm 3 mps 749 mmHg 85%

    Day after tomorrow, 27 August, Tuesday

    Time Temperature Precipitation Wind Pressure Humidity
    00:00 +7°C° 0 mm 3 mps 749 mmHg 85%
    01:00 +7°C° 0 mm 3 mps 749 mmHg 85%
    02:00 +7°C° 0 mm 3 mps 748 mmHg 84%
    03:00 +8°C° 0 mm 3 mps 748 mmHg 82%
    04:00 +8°C° 0 mm 3 mps 747 mmHg 81%
    05:00 +8°C° 0 mm 3 mps 747 mmHg 81%
    06:00 +7°C° 0 mm 3 mps 748 mmHg 81%
    07:00 +7°C° 0 mm 3 mps 748 mmHg 80%
    08:00 +8°C° 0 mm 3 mps 748 mmHg 76%
    09:00 +10°C° 0 mm 4 mps 747 mmHg 71%
    10:00 +11°C° 0 mm 4 mps 747 mmHg 66%
    11:00 +12°C° 0 mm 5 mps 747 mmHg 64%
    12:00 +12°C° 0 mm 5 mps 747 mmHg 62%
    13:00 +13°C° 0 mm 5 mps 746 mmHg 60%
    14:00 +12°C° 0 mm 5 mps 746 mmHg 63%
    15:00 +12°C° 0 mm 5 mps 746 mmHg 66%
    16:00 +10°C° 0 mm 5 mps 745 mmHg 69%
    17:00 +11°C° 0 mm 4 mps 745 mmHg 72%
    18:00 +10°C° 0 mm 4 mps 745 mmHg 76%
    19:00 +9°C° 0 mm 3 mps 745 mmHg 79%
    20:00 +9°C° 0 mm 3 mps 745 mmHg 79%
    21:00 +9°C° 0 mm 3 mps 745 mmHg 79%
    22:00 +9°C° 0 mm 3 mps 744 mmHg 80%
    23:00 +8°C° 0 mm 4 mps 744 mmHg 81%

    28 August, Wednesday

    Time Temperature Precipitation Wind Pressure Humidity
    00:00 +8°C° 0 mm 4 mps 743 mmHg 82%
    01:00 +8°C° 0 mm 4 mps 743 mmHg 84%
    02:00 +8°C° 0 mm 4 mps 742 mmHg 83%
    03:00 +7°C° 0 mm 4 mps 741 mmHg 82%
    04:00 +7°C° 0 mm 4 mps 740 mmHg 81%
    05:00 +8°C° 0.2 mm 4 mps 740 mmHg 82%
    06:00 +8°C° 0.2 mm 4 mps 740 mmHg 82%
    07:00 +8°C° 0.2 mm 4 mps 740 mmHg 83%
    08:00 +7°C° 0.9 mm 4 mps 740 mmHg 84%
    09:00 +7°C° 0.9 mm 4 mps 741 mmHg 86%
    10:00 +6°C° 0.9 mm 4 mps 741 mmHg 88%
    11:00 +6°C° 0.2 mm 4 mps 741 mmHg 85%
    12:00 +6°C° 0.2 mm 4 mps 742 mmHg 82%
    13:00 +6°C° 0.2 mm 4 mps 742 mmHg 78%
    14:00 +6°C° 0.1 mm 4 mps 742 mmHg 74%
    15:00 +6°C° 0.1 mm 4 mps 743 mmHg 70%
    16:00 +6°C° 0.1 mm 4 mps 744 mmHg 66%
    17:00 +4°C° 0.9 mm 4 mps 745 mmHg 76%
    18:00 +3°C° 0.9 mm 4 mps 746 mmHg 85%
    19:00 +1°C° 0.9 mm 3 mps 747 mmHg 94%
    20:00 +2°C° 0.7 mm 3 mps 748 mmHg 94%
    21:00 +2°C° 0.7 mm 3 mps 749 mmHg 94%
    22:00 +2°C° 0.7 mm 3 mps 751 mmHg 93%
    23:00 +2°C° 0 mm 3 mps 751 mmHg 93%

    29 August, Thursday

    Time Temperature Precipitation Wind Pressure Humidity
    00:00 +1°C° 0 mm 3 mps 752 mmHg 92%
    01:00 0°C° 0 mm 3 mps 752 mmHg 92%
    02:00 0°C° 0 mm 3 mps 753 mmHg 92%
    03:00 0°C° 0 mm 3 mps 753 mmHg 92%
    04:00 0°C° 0 mm 3 mps 753 mmHg 92%
    05:00 -1°C° 0 mm 3 mps 754 mmHg 92%
    06:00 -1°C° 0 mm 3 mps 755 mmHg 93%
    07:00 -1°C° 0 mm 2 mps 755 mmHg 93%
    08:00 +2°C° 0 mm 2 mps 756 mmHg 88%
    09:00 +3°C° 0 mm 2 mps 756 mmHg 83%
    10:00 +5°C° 0 mm 2 mps 756 mmHg 78%
    11:00 +6°C° 0 mm 2 mps 756 mmHg 76%
    12:00 +6°C° 0 mm 2 mps 756 mmHg 73%
    13:00 +7°C° 0 mm 2 mps 757 mmHg 71%
    14:00 +7°C° 0 mm 2 mps 757 mmHg 72%
    15:00 +7°C° 0 mm 2 mps 757 mmHg 73%
    16:00 +7°C° 0 mm 2 mps 757 mmHg 74%
    17:00 +6°C° 0 mm 2 mps 757 mmHg 78%
    18:00 +4°C° 0 mm 2 mps 758 mmHg 83%
    19:00 +4°C° 0 mm 1 mps 758 mmHg 88%
    20:00 +4°C° 0 mm 1 mps 758 mmHg 88%
    21:00 +3°C° 0 mm 1 mps 759 mmHg 89%
    22:00 +3°C° 0 mm 1 mps 759 mmHg 89%
    23:00 +3°C° 0 mm 1 mps 759 mmHg 91%

    30 August, Friday

    Time Temperature Precipitation Wind Pressure Humidity
    00:00 +2°C° 0 mm 1 mps 759 mmHg 92%
    01:00 +2°C° 0 mm 1 mps 759 mmHg 93%
    02:00 +2°C° 0 mm 1 mps 759 mmHg 94%
    03:00 +1°C° 0 mm 1 mps 758 mmHg 94%
    04:00 +1°C° 0 mm 1 mps 758 mmHg 94%
    05:00 +1°C° 0 mm 1 mps 758 mmHg 94%
    06:00 +1°C° 0 mm 1 mps 759 mmHg 94%
    07:00 +1°C° 0 mm 1 mps 759 mmHg 93%
    08:00 +3°C° 0 mm 1 mps 759 mmHg 84%
    09:00 +6°C° 0 mm 1 mps 759 mmHg 74%
    10:00 +8°C° 0 mm 1 mps 759 mmHg 64%
    11:00 +10°C° 0 mm 1 mps 758 mmHg 60%
    12:00 +10°C° 0 mm 2 mps 758 mmHg 57%
    13:00 +12°C° 0 mm 2 mps 757 mmHg 53%
    14:00 +12°C° 0 mm 2 mps 757 mmHg 56%
    15:00 +12°C° 0 mm 2 mps 756 mmHg 58%
    16:00 +12°C° 0 mm 2 mps 756 mmHg 61%
    17:00 +9°C° 0 mm 2 mps 756 mmHg 71%
    18:00 +6°C° 0 mm 2 mps 756 mmHg 81%
    19:00 +4°C° 0 mm 2 mps 756 mmHg 91%
    20:00 +4°C° 0 mm 2 mps 756 mmHg 92%
    21:00 +2°C° 0 mm 3 mps 756 mmHg 93%
    22:00 +2°C° 0 mm 3 mps 756 mmHg 94%
    23:00 +2°C° 0 mm 3 mps 755 mmHg 94%
    Show more